Temp
12 12 11 11 10 9 9 9 10 9 9 10 10 10 9 8 8 8 8 7 7 8 8 8 8 8 8 8 8 7 7 7 7 7 7 7 7 7 7 7 7 7 7
11 12 11 10 10 9 10 9 9 10 10 10 9 9 9 8 8 7 7 7 7 8 8 8 8 8 7 7 7 7 7 7 7 7 7 7 7 6 7 7 6 7 7
11 11 11 10 10 9 9 9 9 10 9 9 8 8 8 8 7 7 8 7 8 8 8 7 7 7 7 7 6 6 6 6 6 6 6 6 6 6 6 6 6 6 6
11 10 10 9 9 9 9 9 9 9 9 8 8 8 8 7 7 7 7 7 8 7 7 7 7 7 6 6 6 6 6 6 6 6 6 6 7 6 6 6 6 6 6
11 10 10 8 8 8 9 9 9 9 9 8 8 8 8 7 7 7 7 8 7 7 7 7 6 6 6 6 6 6 6 6 6 6 6 6 6 6 6 6 6 6 6
10 9 9 8 8 8 9 9 9 9 9 8 8 7 7 7 7 7 7 7 7 7 7 6 6 6 5 5 6 6 6 6 6 6 6 6 6 6 6 6 6 6 6
10 9 9 8 8 8 8 8 8 8 9 8 8 7 8 8 8 7 7 7 7 6 6 6 6 6 5 5 5 5 6 6 6 6 6 6 6 6 6 6 6 6 6
9 8 8 8 8 8 8 8 8 8 8 8 8 8 7 7 7 7 7 6 6 6 6 6 5 5 5 5 5 5 6 6 6 6 6 6 6 6 6 6 6 6 6
8 8 7 7 8 8 8 8 7 7 8 8 7 7 7 7 7 6 6 6 6 5 5 5 5 5 5 5 5 5 5 5 6 6 6 6 6 6 6 6 6 6 6
7 7 7 7 7 8 7 7 7 7 7 7 7 7 7 6 6 6 6 6 6 6 5 5 5 5 5 5 5 5 5 6 6 6 6 6 6 6 6 6 6 6 6
6 7 7 8 7 7 7 7 7 7 7 7 7 7 7 6 6 6 6 6 6 6 6 5 5 5 5 5 5 5 5 6 6 6 6 6 6 6 6 6 6 6 6
5 6 7 7 7 7 7 7 7 7 7 7 7 6 6 6 6 6 6 6 6 6 6 6 6 5 5 5 5 5 6 6 6 6 6 6 6 6 6 6 6 6 6
4 5 6 7 6 7 7 7 7 7 7 7 6 6 6 6 6 6 6 6 6 6 6 6 6 6 6 6 5 6 6 6 6 6 6 6 6 6 6 6 5 5 5
4 5 5 6 6 6 6 7 7 7 7 7 6 6 6 6 6 6 6 6 6 6 6 6 6 6 6 6 6 6 5 6 6 6 6 6 6 6 6 6 5 5 5
3 4 4 5 6 6 6 6 6 6 6 6 6 6 6 6 6 6 6 6 6 6 6 6 6 6 6 6 6 5 5 5 5 5 5 6 6 6 6 6 6 6 5
2 4 5 4 5 6 6 6 6 6 6 6 6 6 6 6 6 6 6 6 6 6 6 6 6 6 6 6 6 6 6 6 5 5 6 6 6 6 6 6 6 6 5
3 3 3 4 4 5 5 6 6 6 6 6 6 6 6 6 6 6 6 6 6 6 6 6 6 6 6 6 6 6 6 5 5 5 5 5 6 6 6 6 6 5 5
2 2 2 3 3 3 4 4 5 5 5 5 5 5 6 6 6 6 6 6 6 6 6 6 6 6 6 6 6 6 6 5 5 6 6 6 6 6 6 6 6 6 6
3 2 4 2 3 5 4 4 3 4 4 5 5 5 5 5 5 6 6 6 6 6 6 6 6 6 6 6 6 6 5 5 6 5 5 5 5 6 6 6 6 5 5
3 3 3 3 3 2 3 3 2 3 3 4 4 4 5 5 5 5 5 5 6 6 6 6 5 6 6 5 5 5 5 5 6 5 5 5 5 5 5 6 6 5 5
3 3 3 3 3 3 2 3 3 3 4 5 3 4 4 4 5 5 5 5 6 5 5 5 5 5 5 5 5 5 5 5 5 5 5 5 5 5 5 5 5 5 5
4 3 2 2 3 3 2 3 2 4 3 4 4 3 3 3 4 4 5 5 5 5 5 5 5 5 5 5 5 5 5 5 5 5 5 5 5 5 4 4 4 4 4
4 3 2 3 3 3 3 2 2 3 3 3 3 3 2 3 4 4 4 5 4 5 5 4 4 4 4 4 4 4 4 5 5 5 4 4 4 4 4 4 4 4 4
4 3 3 4 3 3 3 3 3 3 3 3 3 4 3 4 4 3 4 4 4 4 3 3 3 3 3 3 3 3 2 3 4 4 4 4 3 3 4 3 3 3 3
3 3 3 3 4 4 3 3 3 3 2 1 3 3 2 2 2 2 2 2 2 3 3 3 1 2 1 1 2 2 2 3 3 3 3 3 3 3 3 3 3 3 3
3 3 3 3 3 4 4 3 3 3 2 2 2 2 2 2 3 3 2 2 2 2 2 2 2 1 1 1 1 1 2 2 2 2 2 2 2 3 3 3 3 2 2
Height
3158 3159 3161 3162 3164 3165 3165 3166 3167 3168 3169 3170 3171 3173 3176 3178 3181 3183 3185 3187 3189 3190 3190 3191 3191 3192 3192 3192 3192 3191 3191 3191 3190 3190 3189 3188 3187 3186 3185 3185 3184 3184 3182
3157 3159 3160 3161 3163 3164 3165 3165 3166 3168 3169 3170 3172 3174 3177 3179 3182 3184 3186 3188 3189 3190 3191 3192 3192 3193 3193 3193 3193 3193 3192 3192 3191 3191 3190 3189 3189 3187 3187 3186 3185 3184 3183
3155 3157 3158 3159 3161 3163 3164 3166 3166 3167 3169 3171 3174 3175 3178 3180 3182 3185 3187 3188 3189 3191 3192 3192 3193 3194 3194 3194 3194 3194 3193 3193 3192 3192 3191 3191 3190 3189 3188 3187 3186 3185 3184
3154 3155 3157 3158 3160 3162 3164 3165 3166 3168 3169 3172 3175 3176 3179 3181 3183 3184 3186 3188 3190 3191 3192 3193 3194 3194 3195 3195 3195 3195 3194 3194 3194 3193 3192 3192 3191 3190 3189 3188 3187 3185 3184
3151 3154 3156 3158 3160 3161 3163 3165 3166 3168 3169 3172 3175 3178 3179 3181 3183 3185 3186 3188 3190 3191 3193 3194 3195 3195 3195 3195 3195 3195 3194 3194 3193 3193 3192 3192 3191 3190 3189 3188 3187 3186 3184
3149 3152 3154 3157 3158 3160 3162 3163 3165 3167 3169 3172 3175 3177 3179 3182 3184 3185 3187 3189 3191 3192 3193 3194 3195 3196 3196 3196 3195 3195 3195 3194 3194 3193 3193 3192 3191 3190 3189 3188 3187 3185 3184
3147 3150 3153 3155 3157 3159 3161 3163 3165 3167 3169 3172 3175 3178 3180 3182 3184 3186 3188 3190 3191 3193 3194 3195 3196 3196 3196 3196 3196 3195 3195 3195 3194 3193 3193 3192 3192 3191 3189 3188 3187 3185 3184
3146 3147 3151 3154 3156 3158 3160 3162 3164 3166 3169 3172 3175 3178 3180 3182 3184 3187 3189 3190 3192 3193 3194 3195 3196 3197 3197 3196 3196 3195 3195 3194 3194 3193 3193 3192 3191 3190 3189 3188 3186 3185 3183
3143 3146 3149 3152 3154 3157 3159 3161 3163 3166 3168 3171 3174 3177 3180 3182 3185 3187 3189 3190 3191 3192 3193 3194 3195 3196 3196 3196 3196 3195 3194 3194 3193 3193 3192 3191 3190 3189 3188 3187 3185 3183 3182
3141 3143 3146 3150 3152 3155 3158 3161 3163 3166 3169 3171 3174 3177 3180 3182 3184 3186 3188 3190 3191 3192 3193 3194 3195 3195 3195 3194 3194 3194 3193 3193 3192 3191 3191 3190 3189 3188 3187 3186 3184 3182 3180
3135 3139 3144 3147 3150 3153 3156 3160 3162 3165 3168 3171 3174 3177 3180 3182 3185 3186 3188 3190 3192 3192 3193 3194 3194 3195 3194 3194 3193 3193 3192 3191 3191 3190 3189 3188 3187 3186 3185 3184 3182 3180 3178
3130 3136 3141 3144 3148 3152 3155 3159 3162 3164 3168 3171 3174 3177 3179 3182 3184 3186 3188 3190 3191 3192 3193 3193 3193 3193 3193 3193 3192 3192 3191 3190 3189 3189 3188 3187 3186 3185 3183 3182 3179 3177 3175
3125 3133 3137 3141 3146 3150 3154 3158 3161 3165 3168 3171 3173 3176 3179 3181 3184 3186 3187 3189 3190 3190 3191 3191 3191 3191 3191 3191 3191 3190 3190 3189 3188 3187 3186 3185 3184 3182 3181 3179 3177 3175 3173
3122 3131 3135 3139 3143 3147 3151 3156 3160 3164 3167 3170 3173 3175 3177 3180 3182 3184 3185 3187 3188 3189 3189 3189 3189 3189 3189 3189 3189 3188 3188 3187 3186 3185 3184 3183 3181 3179 3178 3177 3175 3173 3170
3119 3123 3131 3136 3141 3145 3148 3153 3156 3161 3165 3169 3172 3174 3176 3178 3180 3181 3182 3184 3185 3185 3186 3187 3187 3187 3187 3186 3186 3186 3185 3185 3184 3183 3181 3180 3178 3177 3175 3173 3172 3170 3168
3118 3120 3123 3131 3138 3144 3148 3151 3155 3157 3161 3165 3168 3171 3173 3175 3177 3179 3180 3181 3182 3183 3183 3184 3184 3184 3184 3184 3183 3183 3183 3182 3181 3180 3179 3177 3176 3174 3172 3169 3167 3166 3165
3109 3114 3122 3123 3132 3139 3146 3149 3151 3154 3158 3160 3164 3167 3169 3172 3173 3175 3176 3177 3178 3179 3180 3181 3181 3181 3181 3180 3180 3179 3179 3179 3178 3177 3176 3175 3173 3170 3168 3167 3165 3162 3160
3107 3114 3120 3123 3125 3135 3139 3143 3146 3149 3152 3155 3159 3162 3164 3166 3168 3170 3171 3173 3173 3174 3175 3176 3177 3178 3177 3177 3176 3176 3175 3175 3174 3174 3173 3171 3169 3167 3166 3164 3162 3160 3157
3111 3115 3117 3124 3130 3133 3138 3139 3141 3147 3149 3151 3153 3155 3158 3161 3163 3165 3166 3167 3169 3170 3170 3171 3172 3173 3173 3173 3173 3172 3172 3171 3170 3169 3168 3167 3166 3163 3161 3159 3157 3155 3153
3106 3112 3115 3121 3126 3128 3130 3137 3137 3143 3146 3148 3151 3153 3156 3157 3158 3159 3161 3162 3163 3164 3166 3167 3167 3168 3168 3169 3169 3168 3167 3166 3165 3165 3164 3162 3160 3159 3157 3155 3152 3150 3148
3105 3108 3114 3119 3121 3123 3126 3129 3131 3135 3141 3142 3144 3147 3150 3153 3154 3155 3155 3156 3157 3159 3160 3161 3162 3163 3163 3164 3164 3164 3163 3163 3161 3160 3159 3157 3155 3154 3152 3150 3148 3146 3144
3097 3106 3113 3116 3116 3119 3124 3127 3130 3131 3133 3132 3136 3141 3144 3146 3144 3149 3150 3150 3151 3152 3153 3155 3156 3157 3158 3158 3158 3158 3158 3159 3156 3156 3154 3152 3151 3148 3147 3145 3143 3140 3138
3103 3106 3109 3113 3116 3117 3121 3120 3122 3123 3125 3125 3128 3130 3136 3137 3137 3137 3142 3143 3144 3146 3147 3149 3151 3152 3151 3153 3152 3152 3151 3151 3149 3149 3148 3147 3145 3144 3141 3140 3139 3136 3133
3101 3104 3106 3108 3111 3112 3115 3116 3114 3115 3118 3121 3121 3124 3130 3127 3128 3133 3136 3138 3139 3140 3140 3142 3143 3144 3145 3146 3146 3146 3146 3145 3142 3142 3142 3140 3139 3137 3135 3133 3131 3130 3127
3100 3101 3104 3107 3107 3107 3109 3110 3111 3110 3112 3111 3115 3119 3118 3120 3123 3126 3127 3128 3130 3131 3133 3133 3135 3137 3137 3139 3141 3141 3141 3139 3137 3135 3134 3134 3131 3129 3127 3126 3125 3122 3120
3098 3100 3102 3103 3102 3105 3107 3108 3108 3109 3110 3109 3110 3113 3115 3117 3120 3122 3122 3121 3123 3124 3125 3127 3128 3130 3132 3132 3133 3135 3134 3133 3130 3128 3125 3126 3124 3122 3120 3119 3117 3116 3113
Wind_Speed
17 16 12 11 10 8 8 6 5 5 6 9 11 15 19 20 19 16 15 13 14 10 9 9 10 10 11 12 13 14 15 14 14 14 14 14 13 13 13 13 13 11 11
12 14 12 12 11 10 9 8 7 7 8 12 17 19 20 19 18 17 17 15 11 9 10 10 11 11 12 13 14 14 14 14 13 13 13 12 12 12 11 11 11 11 10
15 14 13 14 13 12 10 9 9 11 14 18 18 18 18 19 18 18 16 13 11 11 12 12 12 13 13 13 13 13 12 12 12 11 11 11 11 11 10 10 10 9 9
16 15 14 14 13 13 12 11 11 14 18 23 20 19 17 17 16 15 14 12 13 14 14 14 14 13 13 12 11 11 11 11 11 12 12 12 11 11 11 10 10 10 10
19 16 15 15 15 14 13 14 15 16 18 24 22 20 18 15 16 15 15 16 16 15 15 14 13 12 11 10 10 10 11 10 10 10 10 10 11 11 11 11 11 10 10
21 18 17 17 17 16 17 17 18 18 19 23 25 22 18 16 16 17 19 19 17 16 14 13 11 10 10 10 10 9 9 9 9 9 9 10 10 11 11 12 11 11 11
24 21 19 19 19 19 19 20 20 20 20 23 23 22 19 19 19 20 19 18 17 15 13 11 10 10 10 9 8 8 8 8 8 8 9 9 10 11 12 12 12 12 11
24 23 22 21 20 21 22 22 22 22 22 23 23 23 22 22 21 20 19 18 15 14 13 12 11 9 8 7 6 7 7 8 7 8 9 10 10 11 12 13 13 13 13
27 25 24 24 23 23 23 24 25 25 25 25 25 24 24 23 22 20 18 17 16 14 12 9 8 5 5 5 6 7 7 7 7 8 8 8 10 11 12 13 13 14 14
26 24 25 26 26 26 26 26 26 26 26 26 26 26 24 23 22 20 18 16 13 11 9 6 3 3 2 2 4 6 7 8 7 6 7 9 10 11 11 14 15 16 15
31 27 27 27 28 28 28 28 28 28 28 27 27 26 25 24 22 19 16 13 10 7 4 3 0 1 2 3 5 6 7 7 6 7 8 9 11 12 13 16 16 16 16
32 29 28 29 29 30 30 29 29 31 30 30 29 27 24 22 18 15 12 9 6 4 2 2 3 3 5 6 6 7 7 7 8 9 10 11 11 13 15 16 17 17 17
30 28 29 30 31 31 31 31 31 32 32 30 28 25 22 18 15 12 9 7 6 5 5 4 5 5 6 6 7 7 7 8 9 10 11 11 13 14 16 15 15 16 16
31 22 26 29 31 33 33 33 33 32 30 28 26 23 21 18 16 14 11 10 8 8 7 7 6 6 6 7 7 7 8 9 10 12 13 14 15 17 18 18 18 17 17
32 31 25 26 29 32 34 34 34 33 30 27 25 23 20 19 17 15 13 13 12 11 11 10 7 6 6 7 8 9 10 10 11 12 14 15 16 17 18 18 18 16 16
34 32 34 28 26 27 31 32 33 33 31 29 26 24 22 20 18 16 15 14 13 13 13 12 10 8 7 8 8 9 9 10 11 13 14 15 16 16 17 18 17 18 16
41 29 36 32 29 26 25 30 30 31 32 31 28 27 25 23 21 20 18 17 17 16 15 15 13 11 9 9 10 10 10 11 12 13 15 16 18 19 20 20 18 18 18
16 39 30 33 26 25 27 31 28 31 31 29 28 29 28 26 24 23 21 20 20 19 19 18 17 15 13 11 11 12 11 12 13 14 15 17 18 20 21 22 20 20 20
4 15 10 16 31 22 29 39 31 29 30 31 33 32 28 26 26 25 25 24 23 22 22 22 21 18 16 15 14 13 12 12 13 15 16 18 20 21 22 22 22 21 21
15 5 2 6 9 7 27 44 31 33 32 30 29 28 29 25 23 27 26 26 26 25 26 25 24 22 20 18 16 14 14 13 14 15 17 19 20 21 22 22 22 23 23
20 16 12 11 13 14 15 36 41 41 42 43 38 31 29 26 24 24 24 26 27 26 28 28 27 25 23 22 19 17 16 15 15 16 18 20 22 22 21 21 21 22 23
21 13 22 20 20 23 16 20 11 26 20 43 55 42 41 29 25 26 27 28 28 29 29 29 29 27 25 23 21 21 19 16 15 17 20 23 25 26 25 24 22 22 23
15 18 20 20 19 17 17 24 23 25 22 13 19 42 36 32 31 26 28 30 30 31 29 27 28 25 24 22 20 21 22 23 22 22 21 25 27 27 27 27 26 24 24
15 18 19 22 20 23 24 27 29 27 31 31 27 27 37 39 27 26 23 24 29 27 24 25 26 26 25 23 21 18 24 26 29 30 31 34 29 30 30 28 27 27 26
13 14 15 14 16 17 20 22 23 25 18 22 22 28 21 26 27 28 24 25 26 28 28 29 30 35 31 30 35 30 29 28 32 35 35 32 32 33 32 31 29 29 29
21 24 24 20 19 19 20 19 18 17 16 15 13 16 13 14 17 21 26 21 22 26 28 30 32 36 37 38 30 33 31 32 34 35 35 30 32 32 33 32 31 30 30
Wind_Direction
223 216 209 193 186 187 192 184 178 177 170 162 162 153 152 152 155 150 143 137 129 116 110 109 106 106 100 95 91 89 86 83 81 78 74 72 71 69 66 63 62 57 56
223 220 204 188 184 186 184 176 166 167 159 146 140 142 145 148 148 143 139 135 126 122 121 119 113 106 101 99 95 90 86 82 78 76 74 72 68 65 61 60 57 54 51
200 210 203 189 184 185 179 171 162 157 152 138 139 143 149 151 151 146 142 134 134 132 128 122 116 109 104 98 93 88 84 81 77 72 66 62 59 56 54 49 45 42 39
196 200 202 188 180 177 176 167 161 156 153 147 151 150 149 150 154 154 152 144 141 134 129 123 117 110 102 96 89 83 78 73 69 65 61 55 50 46 41 39 35 31 26
193 196 195 182 174 178 172 162 157 155 155 154 152 154 156 155 153 148 148 145 140 136 131 124 115 107 100 92 86 81 77 73 69 64 61 54 46 39 34 28 24 20 16
186 190 190 182 180 175 170 162 158 154 154 159 159 160 160 159 153 149 146 143 141 138 131 124 118 110 103 95 85 77 72 67 62 57 52 46 39 33 28 22 18 14 8
188 186 186 186 183 175 169 164 159 155 154 156 160 165 160 152 147 146 145 141 139 135 129 124 117 108 98 86 76 68 62 58 55 50 45 37 30 23 17 13 10 5 360
191 185 184 182 185 176 170 167 160 156 154 153 153 153 150 147 146 145 143 140 136 131 124 118 106 95 85 68 54 49 47 45 47 39 30 25 17 9 5 3 358 355 351
193 190 182 181 183 176 173 167 159 155 152 151 150 150 149 146 145 145 142 137 131 125 118 110 103 91 66 45 23 14 19 27 28 24 17 10 3 357 354 356 350 346 345
188 193 187 186 178 176 171 169 162 157 154 152 150 149 149 147 144 141 138 134 131 126 124 123 122 107 63 22 1 352 358 4 9 8 360 354 351 346 347 344 343 341 339
189 191 189 182 177 175 172 170 164 159 156 154 151 148 145 142 141 139 136 135 133 131 133 132 160 305 318 322 325 331 341 346 346 348 350 345 344 339 342 343 341 337 334
185 188 192 181 180 177 173 170 168 162 157 154 151 150 150 150 149 148 146 147 155 166 198 254 280 295 306 309 311 320 327 332 337 340 341 341 341 338 331 335 334 332 332
181 188 187 183 180 178 175 171 168 162 161 160 160 160 161 161 163 165 172 184 201 219 236 260 283 295 300 304 309 317 325 329 332 331 333 333 329 329 327 326 325 323 322
186 185 192 187 184 182 179 175 174 171 171 170 171 172 176 181 188 195 202 212 224 236 245 253 268 284 296 302 307 312 317 320 325 326 328 330 327 324 323 323 319 318 316
190 182 190 190 190 187 185 184 182 181 183 185 185 188 193 197 204 211 219 227 231 235 239 245 255 272 287 294 301 308 315 319 322 324 323 323 324 322 323 322 317 316 315
199 189 184 183 192 196 193 192 192 192 194 196 199 202 205 210 217 226 234 240 243 244 244 244 250 260 272 284 292 302 309 314 316 314 317 319 317 317 317 318 313 315 313
189 196 195 179 183 190 205 203 203 204 204 205 207 211 213 219 228 234 239 243 248 248 248 249 249 256 264 278 285 290 296 303 305 312 313 314 315 319 320 317 313 308 310
197 192 195 190 185 201 204 211 207 212 212 212 215 218 222 228 235 239 245 249 249 248 244 244 246 251 259 268 277 282 289 298 306 309 314 316 317 317 316 314 313 309 305
190 164 208 204 199 242 223 218 214 223 220 219 214 216 220 233 239 245 248 250 250 250 245 241 242 246 254 264 270 274 282 285 298 308 316 320 320 319 318 317 313 309 308
182 205 18 240 247 256 218 220 240 246 229 229 229 227 233 229 242 251 249 251 253 252 247 242 241 243 250 259 263 265 272 284 298 308 315 320 321 320 319 317 315 311 309
202 198 212 217 229 265 197 216 244 230 236 238 235 229 232 228 256 262 258 252 253 252 249 243 241 243 249 257 261 264 270 282 295 304 313 316 317 316 316 311 309 309 307
218 227 232 229 240 247 258 230 241 214 256 232 232 229 228 231 253 255 254 255 253 249 246 243 242 243 248 256 262 267 269 273 283 291 303 313 311 312 313 311 308 305 305
231 228 238 246 247 251 255 243 246 232 232 213 231 232 218 248 251 251 255 255 252 254 249 244 245 246 250 252 262 274 281 284 285 290 300 311 309 308 308 307 304 301 299
218 219 230 242 242 253 248 248 241 268 251 233 239 239 243 244 244 249 253 252 252 258 245 235 236 236 242 247 260 272 285 289 292 296 300 304 303 306 303 302 300 297 297
223 231 234 239 241 251 256 251 259 262 288 284 242 253 279 237 256 238 248 247 246 248 242 239 232 237 241 250 252 277 284 283 288 294 297 299 299 303 304 300 296 295 294
241 241 241 240 246 251 249 255 253 257 263 272 276 269 277 270 281 281 264 252 251 253 247 242 240 258 258 256 260 268 270 280 288 293 293 294 296 298 297 296 294 290 288